User: anonymous   Login
Location: Unspecified
(0.0000°N, 0.0000°E)
Time: 10:56:45
(UTC+00:00)
Language:

USA 227 - Orbit

View from above orbital plane
View from above orbital plane
View from above satellite
View from above satellite

Ground track
Ground track

The orbit data is extracted from the following two-line orbital elements,

1 37377U 11011A   20001.14023172 0.00000000  00000-0  00000-0 0    07
2 37377   4.5320   9.4844 0003986 137.1760 222.8239  1.00270000    01
Epoch (UTC): 01 January 2020 03:21:56
Eccentricity: 0.0003986
inclination: 4.5320°
perigee height: 35770 km
apogee height: 35803 km
right ascension of ascending node: 9.4844°
argument of perigee: 137.1760°
revolutions per day: 1.00270000
mean anomaly at epoch: 222.8239°
orbit number at epoch: 0

The dashed part of the orbit path shows where the satellite is in the earth's shadow,  

DLR